Time,TemperatureF,DewpointF,PressureIn,WindDirection,WindDirectionDegrees,WindSpeedMPH,WindSpeedGustMPH,Humidity,HourlyPrecipIn,Conditions,Clouds,dailyrainin,SolarRadiationWatts/m^2,SoftwareType,DateUTC
2013-07-21 00:00:00,80.0,76.0,-100.00,South,183,2.0,-999.0,87,0.00,,,-99.99,0.000000,,2013-07-21 04:00:00,
2013-07-21 00:11:00,80.0,76.0,-100.00,SSW,204,2.0,-999.0,88,0.00,,,-99.99,0.000000,,2013-07-21 04:11:00,
2013-07-21 00:22:00,80.0,77.0,-100.00,SSE,163,3.0,-999.0,89,0.00,,,-99.99,0.000000,,2013-07-21 04:22:00,
2013-07-21 00:53:00,81.0,78.0,-100.00,SSE,167,4.0,-999.0,89,0.00,,,-99.99,0.000000,,2013-07-21 04:53:00,
2013-07-21 01:02:00,81.0,77.0,-100.00,South,180,3.0,-999.0,87,0.00,,,-99.99,0.000000,,2013-07-21 05:02:00,
2013-07-21 01:22:00,81.0,77.0,-100.00,SSW,204,2.0,-999.0,86,0.00,,,-99.99,0.000000,,2013-07-21 05:22:00,
2013-07-21 01:52:00,80.0,76.0,-100.00,WSW,244,1.0,-999.0,87,0.00,,,-99.99,0.000000,,2013-07-21 05:52:00,
2013-07-21 02:01:00,80.0,76.0,-100.00,NNW,345,1.0,-999.0,89,0.00,,,-99.99,0.000000,,2013-07-21 06:01:00,
2013-07-21 02:22:00,79.0,76.0,-100.00,SSE,151,2.0,-999.0,90,0.00,,,-99.99,0.000000,,2013-07-21 06:22:00,
2013-07-21 02:32:00,80.0,77.0,-100.00,SW,231,2.0,-999.0,90,0.00,,,-99.99,0.000000,,2013-07-21 06:32:00,
2013-07-21 02:53:00,80.0,77.0,-100.00,NNW,339,1.0,-999.0,90,0.00,,,-99.99,0.000000,,2013-07-21 06:53:00,
2013-07-21 03:01:00,80.0,77.0,-100.00,NE,51,0.0,-999.0,90,0.00,,,-99.99,0.000000,,2013-07-21 07:01:00,
2013-07-21 03:22:00,79.0,76.0,-100.00,ESE,105,1.0,-999.0,91,0.00,,,-99.99,0.000000,,2013-07-21 07:22:00,
2013-07-21 03:32:00,79.0,76.0,-100.00,SE,140,2.0,-999.0,91,0.00,,,-99.99,0.000000,,2013-07-21 07:32:00,
2013-07-21 03:53:00,79.0,77.0,-100.00,SSE,149,3.0,-999.0,92,0.00,,,-99.99,0.000000,,2013-07-21 07:53:00,
2013-07-21 04:01:00,79.0,77.0,-100.00,South,177,2.0,-999.0,92,0.00,,,-99.99,0.000000,,2013-07-21 08:01:00,
2013-07-21 04:22:00,79.0,77.0,-100.00,South,176,3.0,-999.0,92,0.00,,,-99.99,0.000000,,2013-07-21 08:22:00,
2013-07-21 04:33:00,80.0,77.0,-100.00,SSE,164,2.0,-999.0,92,0.00,,,-99.99,0.000000,,2013-07-21 08:33:00,
2013-07-21 04:52:00,79.0,77.0,-100.00,ESE,103,1.0,-999.0,92,0.00,,,-99.99,0.000000,,2013-07-21 08:52:00,
2013-07-21 05:22:00,79.0,76.0,-100.00,SE,135,2.0,-999.0,92,0.00,,,-99.99,0.000000,,2013-07-21 09:22:00,
2013-07-21 05:52:00,80.0,77.0,-100.00,SSE,147,2.0,-999.0,92,0.00,,,-99.99,0.000000,,2013-07-21 09:52:00,
2013-07-21 06:02:00,79.0,77.0,-100.00,SW,229,1.0,-999.0,91,0.00,,,-99.99,0.000000,,2013-07-21 10:02:00,
2013-07-21 06:22:00,79.0,76.0,-100.00,SSE,150,2.0,-999.0,91,0.00,,,-99.99,0.000000,,2013-07-21 10:22:00,
2013-07-21 06:32:00,78.0,75.0,-100.00,SSW,211,1.0,-999.0,91,0.00,,,-99.99,0.000000,,2013-07-21 10:32:00,
2013-07-21 06:52:00,78.0,75.0,-100.00,SE,143,2.0,-999.0,91,0.00,,,-99.99,0.000000,,2013-07-21 10:52:00,
2013-07-21 07:22:00,79.0,76.0,-100.00,ESE,110,1.0,-999.0,92,0.00,,,-99.99,4.500000,,2013-07-21 11:22:00,
2013-07-21 07:52:00,80.0,78.0,-100.00,SSE,163,1.0,-999.0,94,0.00,,,-99.99,24.600000,,2013-07-21 11:52:00,
2013-07-21 08:22:00,81.0,79.0,-100.00,South,189,1.0,-999.0,93,0.00,,,-99.99,59.200001,,2013-07-21 12:22:00,
2013-07-21 08:53:00,81.0,79.0,-100.00,SW,235,2.0,-999.0,92,0.00,,,-99.99,86.400002,,2013-07-21 12:53:00,
2013-07-21 09:22:00,82.0,79.0,-100.00,SW,229,2.0,-999.0,90,0.00,,,-99.99,140.800003,,2013-07-21 13:22:00,
2013-07-21 09:53:00,83.0,80.0,-100.00,SSW,206,2.0,-999.0,88,0.00,,,-99.99,175.399994,,2013-07-21 13:53:00,
2013-07-21 10:23:00,84.0,80.0,-100.00,South,179,3.0,-999.0,86,0.00,,,-99.99,205.000000,,2013-07-21 14:23:00,
2013-07-21 10:53:00,85.0,79.0,-100.00,South,169,4.0,-999.0,82,0.00,,,-99.99,271.899994,,2013-07-21 14:53:00,
2013-07-21 11:22:00,86.0,79.0,-100.00,SSW,198,3.0,-999.0,80,0.00,,,-99.99,336.000000,,2013-07-21 15:22:00,
2013-07-21 11:53:00,87.0,78.0,-100.00,SSE,161,4.0,-999.0,77,0.00,,,-99.99,360.500000,,2013-07-21 15:53:00,
2013-07-21 12:22:00,87.0,78.0,-100.00,SSE,158,6.0,-999.0,74,0.00,,,-99.99,413.299988,,2013-07-21 16:22:00,
2013-07-21 12:52:00,88.0,78.0,-100.00,South,171,5.0,-999.0,72,0.00,,,-99.99,373.200012,,2013-07-21 16:52:00,
2013-07-21 13:11:00,88.0,78.0,-100.00,SE,139,6.0,-999.0,74,0.00,,,-99.99,401.799988,,2013-07-21 17:11:00,
2013-07-21 13:22:00,88.0,78.0,-100.00,SE,143,5.0,-999.0,72,0.00,,,-99.99,516.599976,,2013-07-21 17:22:00,
2013-07-21 13:53:00,89.0,79.0,-100.00,SE,140,6.0,-999.0,71,0.00,,,-99.99,1045.000000,,2013-07-21 17:53:00,
2013-07-21 14:22:00,90.0,78.0,-100.00,SSE,151,7.0,-999.0,69,0.00,,,-99.99,754.000000,,2013-07-21 18:22:00,
2013-07-21 14:52:00,90.0,78.0,-100.00,SSE,149,7.0,-999.0,68,0.00,,,-99.99,673.400024,,2013-07-21 18:52:00,
2013-07-21 15:22:00,89.0,78.0,-100.00,SE,129,7.0,-999.0,71,0.00,,,-99.99,589.299988,,2013-07-21 19:22:00,
2013-07-21 15:52:00,90.0,79.0,-100.00,SE,135,8.0,-999.0,70,0.00,,,-99.99,860.000000,,2013-07-21 19:52:00,
2013-07-21 16:01:00,90.0,79.0,-100.00,SE,135,8.0,-999.0,70,0.00,,,-99.99,860.000000,,2013-07-21 20:01:00,
2013-07-21 16:22:00,89.0,79.0,-100.00,SE,139,8.0,-999.0,70,0.00,,,-99.99,493.200012,,2013-07-21 20:22:00,
2013-07-21 16:32:00,89.0,79.0,-100.00,SE,130,8.0,-999.0,72,0.00,,,-99.99,563.900024,,2013-07-21 20:32:00,
2013-07-21 16:52:00,88.0,79.0,-100.00,SE,132,8.0,-999.0,74,0.00,,,-99.99,154.300003,,2013-07-21 20:52:00,
2013-07-21 17:22:00,86.0,78.0,-100.00,SE,134,7.0,-999.0,76,0.00,,,-99.99,89.900002,,2013-07-21 21:22:00,
2013-07-21 17:32:00,86.0,78.0,-100.00,ESE,117,7.0,-999.0,78,0.00,,,-99.99,72.099998,,2013-07-21 21:32:00,
2013-07-21 17:52:00,85.0,78.0,-100.00,SE,126,6.0,-999.0,79,0.00,,,-99.99,48.299999,,2013-07-21 21:52:00,
2013-07-21 18:22:00,85.0,78.0,-100.00,SE,127,7.0,-999.0,81,0.00,,,-99.99,31.600000,,2013-07-21 22:22:00,
2013-07-21 18:52:00,84.0,78.0,-100.00,SE,140,7.0,-999.0,81,0.00,,,-99.99,33.000000,,2013-07-21 22:52:00,
2013-07-21 19:22:00,85.0,78.0,-100.00,SE,143,6.0,-999.0,81,0.00,,,-99.99,45.099998,,2013-07-21 23:22:00,
2013-07-21 19:53:00,84.0,78.0,-100.00,SE,146,6.0,-999.0,83,0.00,,,-99.99,43.500000,,2013-07-21 23:53:00,
2013-07-21 20:01:00,83.0,78.0,-100.00,SSE,149,5.0,-999.0,84,0.00,,,-99.99,11.900000,,2013-07-22 00:01:00,
2013-07-21 20:22:00,83.0,78.0,-100.00,SE,135,3.0,-999.0,85,0.00,,,-99.99,3.300000,,2013-07-22 00:22:00,
2013-07-21 20:32:00,82.0,77.0,-100.00,ESE,113,3.0,-999.0,84,0.00,,,-99.99,0.500000,,2013-07-22 00:32:00,
2013-07-21 20:53:00,82.0,77.0,-100.00,ESE,102,3.0,-999.0,85,0.00,,,-99.99,0.000000,,2013-07-22 00:53:00,
2013-07-21 21:02:00,82.0,78.0,-100.00,ESE,114,3.0,-999.0,86,0.00,,,-99.99,0.000000,,2013-07-22 01:02:00,
2013-07-21 21:22:00,83.0,78.0,-100.00,SE,142,3.0,-999.0,85,0.00,,,-99.99,0.000000,,2013-07-22 01:22:00,
2013-07-21 21:52:00,82.0,77.0,-100.00,East,93,1.0,-999.0,86,0.00,,,-99.99,0.000000,,2013-07-22 01:52:00,
2013-07-21 22:22:00,81.0,77.0,-100.00,NNE,26,1.0,-999.0,87,0.00,,,-99.99,0.000000,,2013-07-22 02:22:00,
2013-07-21 22:32:00,81.0,77.0,-100.00,NNE,28,1.0,-999.0,88,0.00,,,-99.99,0.000000,,2013-07-22 02:32:00,
2013-07-21 22:52:00,81.0,77.0,-100.00,East,84,3.0,-999.0,89,0.00,,,-99.99,0.000000,,2013-07-22 02:52:00,
2013-07-21 23:22:00,81.0,77.0,-100.00,ENE,68,2.0,-999.0,88,0.00,,,-99.99,0.000000,,2013-07-22 03:22:00,
2013-07-21 23:53:00,82.0,78.0,-100.00,East,84,4.0,-999.0,87,0.00,,,-99.99,0.000000,,2013-07-22 03:53:00,